Omaha Millard, NE

2:35 PM CDT on October 18, 2017 (GMT -0500)
Millard Municipal

Weather History for KMLE - April, 2013

Change the Weather History Date:

Monday, April 29, 2013

  Actual Average (KOFF) Record (KOFF)
Temperature  
Mean Temperature 70 °F -  
Max Temperature 84 °F 65 °F 89 °F (2007)
Min Temperature 56 °F 46 °F 32 °F (2008)
Cooling Degree Days 5    
Growing Degree Days 20 (Base 50)    
Moisture  
Dew Point 52 °F    
Average Humidity 60    
Maximum Humidity 88    
Minimum Humidity 25    
Precipitation  
Precipitation 0.00 in - - ()
Sea Level Pressure  
Sea Level Pressure 29.66 in    
Wind  
Wind Speed 3 mph (SSE)    
Max Wind Speed 12 mph    
Max Gust Speed 18 mph    
Visibility 10 miles    
Events Rain    
Averages and records for this station are not official NWS values.
T = Trace of Precipitation, MM = Missing Value Source: NWS Daily Summary

Daily Weather History Graph

Daily Weather History Graph

Search for Another Location

Airport or City:

Trip Planner

Search our weather history database for the weather conditions in past years. The results will help you decide how hot, cold, wet, or windy it might be!

Date:

Astronomy

Apr. 29, 2013 Rise Set
Actual Time 6:24 AM CDT 8:19 PM CDT
Civil Twilight 5:54 AM CDT 8:49 PM CDT
Nautical Twilight 5:18 AM CDT 9:26 PM CDT
Astronomical Twilight 4:39 AM CDT 10:05 PM CDT
Moon No Moon Rise 9:45 AM CDT (4/29)
Length of Visible Light 14h 55m
Length of Day
13h 55m
Waning Gibbous, 80% of the Moon is Illuminated
Apr 29
Waning Gibbous
May 2
Last Quarter
May 9
New
May 17
First Quarter
May 24
Full

Hourly Weather History & Observations

Time (CDT) Temp. Heat Index Dew Point Humidity Pressure Visibility Wind Dir Wind Speed Gust Speed Precip Events Conditions
12:15 AM 62.6 °F - 52.7 °F 70% 29.74 in 10.0 mi Calm Calm - N/A   Clear
12:35 AM 60.8 °F - 52.7 °F 75% 29.74 in 10.0 mi SE 4.6 mph - N/A   Clear
12:55 AM 61.7 °F - 53.6 °F 75% 29.75 in 10.0 mi Calm Calm - N/A   Clear
1:15 AM 60.4 °F - 53.2 °F 77% 29.75 in 10.0 mi Calm Calm - N/A   Clear
1:35 AM 58.1 °F - 53.1 °F 83% 29.75 in 10.0 mi Calm Calm - N/A   Clear
1:55 AM 58.1 °F - 53.6 °F 85% 29.75 in 10.0 mi SSE 3.5 mph - N/A   Clear
2:15 AM 59.0 °F - 53.6 °F 82% 29.73 in 10.0 mi SSE 6.9 mph - N/A   Clear
2:35 AM 59.2 °F - 53.6 °F 82% 29.73 in 10.0 mi Calm Calm - N/A   Clear
2:55 AM 59.2 °F - 53.8 °F 82% 29.73 in 10.0 mi Calm Calm - N/A   Clear
3:15 AM 58.6 °F - 53.8 °F 84% 29.72 in 10.0 mi Calm Calm - N/A   Clear
3:35 AM 57.4 °F - 53.8 °F 88% 29.72 in 10.0 mi Calm Calm - N/A   Clear
3:55 AM 58.3 °F - 54.1 °F 86% 29.72 in 10.0 mi Calm Calm - N/A   Clear
4:15 AM 56.8 °F - 52.7 °F 86% 29.73 in 10.0 mi Calm Calm - N/A   Clear
4:35 AM 58.5 °F - 54.1 °F 86% 29.73 in 10.0 mi Calm Calm - N/A   Scattered Clouds
4:55 AM 59.5 °F - 53.1 °F 79% 29.72 in 10.0 mi NNW 5.8 mph - N/A   Scattered Clouds
5:15 AM 59.5 °F - 49.1 °F 68% 29.74 in 10.0 mi NW 6.9 mph - N/A   Scattered Clouds
5:35 AM 59.2 °F - 48.2 °F 67% 29.74 in 10.0 mi NNE 5.8 mph - N/A   Scattered Clouds
5:55 AM 59.0 °F - 47.8 °F 66% 29.72 in 10.0 mi Calm Calm - N/A   Scattered Clouds
6:15 AM 58.1 °F - 48.2 °F 70% 29.71 in 10.0 mi Calm Calm - N/A   Scattered Clouds
6:35 AM 58.5 °F - 48.2 °F 69% 29.73 in 10.0 mi Calm Calm - N/A   Clear
6:55 AM 57.9 °F - 48.2 °F 70% 29.74 in 10.0 mi NW 3.5 mph - N/A   Clear
7:15 AM 57.6 °F - 48.6 °F 72% 29.73 in 10.0 mi North 5.8 mph - N/A   Clear
7:35 AM 57.4 °F - 49.1 °F 74% 29.75 in 10.0 mi NNW 11.5 mph 16.1 mph N/A   Clear
7:55 AM 56.5 °F - 48.7 °F 75% 29.75 in 7.0 mi NW 10.4 mph 18.4 mph N/A Rain Light Rain
8:15 AM 56.7 °F - 48.7 °F 75% 29.74 in 10.0 mi NNE 5.8 mph - N/A   Clear
8:35 AM 57.2 °F - 49.3 °F 75% 29.75 in 10.0 mi North 5.8 mph - N/A   Clear
8:55 AM 57.6 °F - 49.8 °F 75% 29.75 in 10.0 mi Calm Calm - N/A   Clear
9:15 AM 59.0 °F - 50.5 °F 73% 29.77 in 10.0 mi Calm Calm - N/A   Clear
9:35 AM 59.0 °F - 50.5 °F 73% 29.76 in 10.0 mi Calm Calm - N/A   Clear
9:55 AM 60.3 °F - 51.8 °F 74% 29.76 in 10.0 mi WNW 4.6 mph - N/A   Clear
10:15 AM 61.0 °F - 52.0 °F 72% 29.75 in 10.0 mi Calm Calm - N/A   Clear
10:35 AM 61.3 °F - 52.0 °F 71% 29.74 in 10.0 mi NNW 4.6 mph - N/A   Clear
10:55 AM 62.6 °F - 52.9 °F 70% 29.73 in 10.0 mi NNW 4.6 mph - N/A   Clear
11:15 AM 64.0 °F - 53.6 °F 69% 29.72 in 10.0 mi NNE 3.5 mph - N/A   Clear
11:35 AM 65.5 °F - 53.8 °F 66% 29.71 in 10.0 mi NE 3.5 mph - N/A   Clear
11:55 AM 67.6 °F - 54.7 °F 63% 29.71 in 10.0 mi Calm Calm - N/A   Clear
12:15 PM 68.7 °F - 55.2 °F 62% 29.70 in 10.0 mi Calm Calm - N/A   Clear
12:35 PM 69.8 °F - 54.7 °F 59% 29.70 in 10.0 mi Calm Calm - N/A   Clear
12:55 PM 71.6 °F - 54.5 °F 55% 29.69 in 10.0 mi Calm Calm - N/A   Clear
1:15 PM 72.1 °F - 55.0 °F 55% 29.69 in 10.0 mi Calm Calm - N/A   Clear
1:35 PM 73.4 °F - 55.8 °F 54% 29.68 in 10.0 mi Calm Calm - N/A   Clear
1:55 PM 74.8 °F - 55.9 °F 52% 29.67 in 10.0 mi Calm Calm - N/A   Clear
2:15 PM 76.1 °F - 55.8 °F 49% 29.64 in 10.0 mi SE 5.8 mph - N/A   Clear
2:35 PM 77.7 °F - 54.7 °F 45% 29.64 in 10.0 mi SSE 3.5 mph - N/A   Clear
2:55 PM 79.2 °F - 55.9 °F 45% 29.64 in 10.0 mi SE 3.5 mph - N/A   Clear
3:15 PM 80.4 °F 80.2 °F 54.1 °F 40% 29.63 in 10.0 mi Calm Calm - N/A   Clear
3:35 PM 81.1 °F - 51.1 °F 35% 29.62 in 10.0 mi South 6.9 mph - N/A   Clear
3:55 PM 82.6 °F - 50.0 °F 32% 29.60 in 10.0 mi SW 4.6 mph - N/A   Clear
4:15 PM 83.7 °F - 49.8 °F 31% 29.59 in 10.0 mi South 8.1 mph - N/A   Clear
4:35 PM 83.7 °F - 48.6 °F 29% 29.59 in 10.0 mi South 5.8 mph - N/A   Clear
4:55 PM 84.2 °F - 45.0 °F 25% 29.58 in 10.0 mi SSE 9.2 mph - N/A   Clear
5:15 PM 84.2 °F - 45.7 °F 26% 29.58 in 10.0 mi SW 5.8 mph - N/A   Clear
5:35 PM 84.2 °F - 48.4 °F 29% 29.56 in 10.0 mi South 6.9 mph - N/A   Clear
5:55 PM 83.3 °F - 46.6 °F 28% 29.56 in 10.0 mi SSE 6.9 mph - N/A   Clear
6:15 PM 84.2 °F - 45.3 °F 26% 29.55 in 10.0 mi South 6.9 mph - N/A   Clear
6:35 PM 84.2 °F - 46.0 °F 26% 29.54 in 10.0 mi South 8.1 mph - N/A   Clear
6:55 PM 83.3 °F - 47.5 °F 29% 29.54 in 10.0 mi SSE 11.5 mph - N/A   Clear
7:15 PM 82.2 °F - 47.7 °F 30% 29.54 in 10.0 mi SSE 9.2 mph - N/A   Clear
7:35 PM 80.8 °F - 49.3 °F 33% 29.54 in 10.0 mi NNE 3.5 mph - N/A   Clear
7:55 PM 79.5 °F - 49.6 °F 35% 29.53 in 10.0 mi Calm Calm - N/A   Clear
8:15 PM 77.7 °F - 50.2 °F 38% 29.53 in 10.0 mi Calm Calm - N/A   Clear
8:35 PM 73.4 °F - 53.2 °F 49% 29.53 in 10.0 mi Calm Calm - N/A   Clear
8:55 PM 72.5 °F - 52.7 °F 50% 29.54 in 10.0 mi Calm Calm - N/A   Clear
9:15 PM 70.3 °F - 54.1 °F 56% 29.54 in 10.0 mi Calm Calm - N/A   Clear
9:35 PM 68.9 °F - 54.3 °F 60% 29.54 in 10.0 mi Calm Calm - N/A   Clear
9:55 PM 68.4 °F - 54.5 °F 61% 29.54 in 10.0 mi Calm Calm - N/A   Clear
10:35 PM 69.3 °F - 54.3 °F 59% 29.54 in 10.0 mi South 4.6 mph - N/A   Clear
10:55 PM 72.7 °F - 54.5 °F 53% 29.53 in 10.0 mi SSE 4.6 mph - N/A   Clear
11:15 PM 73.4 °F - 54.5 °F 51% 29.53 in 10.0 mi Calm Calm - N/A   Clear
11:35 PM 70.9 °F - 55.4 °F 58% 29.52 in 10.0 mi SE 3.5 mph - N/A   Clear
11:55 PM 73.2 °F - 56.5 °F 56% 29.51 in 10.0 mi SSE 9.2 mph - N/A   Clear